Previsão horária em Senkovichi

Hoje, 28 Novembro, Sábado

Tempo Temperatura Precipitação Vento Pressão Humidade
00:00 0°C° 0.2 mm 4 m/s 747 mmHg 91%
01:00 +1°C° 0.2 mm 3 m/s 747 mmHg 93%
02:00 +1°C° 0.2 mm 3 m/s 747 mmHg 94%
03:00 0°C° 0.2 mm 3 m/s 747 mmHg 95%
04:00 +1°C° 0.2 mm 2 m/s 747 mmHg 95%
05:00 +1°C° 0.2 mm 2 m/s 747 mmHg 95%
06:00 -1°C° 0.2 mm 2 m/s 748 mmHg 94%
07:00 -1°C° 0.2 mm 2 m/s 748 mmHg 93%
08:00 -1°C° 0.2 mm 3 m/s 748 mmHg 92%
09:00 -1°C° 0 mm 3 m/s 748 mmHg 89%
10:00 -1°C° 0 mm 3 m/s 749 mmHg 85%
11:00 -1°C° 0 mm 3 m/s 749 mmHg 82%
12:00 -1°C° 0 mm 3 m/s 749 mmHg 80%
13:00 0°C° 0 mm 3 m/s 749 mmHg 79%
14:00 0°C° 0 mm 3 m/s 749 mmHg 77%
15:00 -1°C° 0 mm 3 m/s 749 mmHg 79%
16:00 -1°C° 0 mm 2 m/s 749 mmHg 80%
17:00 -1°C° 0 mm 2 m/s 749 mmHg 82%
18:00 -2°C° 0 mm 2 m/s 749 mmHg 82%
19:00 0°C° 0 mm 1 m/s 749 mmHg 83%
20:00 0°C° 0 mm 1 m/s 750 mmHg 84%
21:00 0°C° 0 mm 1 m/s 750 mmHg 85%
22:00 0°C° 0 mm 1 m/s 750 mmHg 86%
23:00 0°C° 0 mm 1 m/s 749 mmHg 87%

Amanhã, 29 Novembro, Domingo

Tempo Temperatura Precipitação Vento Pressão Humidade
00:00 0°C° 0 mm 1 m/s 750 mmHg 86%
01:00 0°C° 0 mm 1 m/s 750 mmHg 86%
02:00 -1°C° 0 mm 1 m/s 750 mmHg 86%
03:00 -1°C° 0 mm 1 m/s 750 mmHg 87%
04:00 -1°C° 0 mm 1 m/s 749 mmHg 88%
05:00 -1°C° 0 mm 1 m/s 749 mmHg 89%
06:00 -1°C° 0 mm 1 m/s 749 mmHg 90%
07:00 -1°C° 0 mm 1 m/s 749 mmHg 92%
08:00 -3°C° 0 mm 2 m/s 749 mmHg 93%
09:00 -2°C° 0.1 mm 2 m/s 750 mmHg 93%
10:00 -2°C° 0.1 mm 2 m/s 750 mmHg 92%
11:00 +1°C° 0.1 mm 1 m/s 750 mmHg 92%
12:00 +1°C° 0.1 mm 1 m/s 750 mmHg 92%
13:00 +2°C° 0.1 mm 1 m/s 750 mmHg 92%
14:00 +2°C° 0.1 mm 1 m/s 750 mmHg 92%
15:00 +2°C° 0.1 mm 1 m/s 749 mmHg 94%
16:00 +1°C° 0.1 mm 1 m/s 749 mmHg 95%
17:00 -1°C° 0.1 mm 2 m/s 749 mmHg 97%
18:00 -1°C° 0.2 mm 2 m/s 750 mmHg 97%
19:00 -1°C° 0.2 mm 2 m/s 750 mmHg 97%
20:00 -1°C° 0.2 mm 2 m/s 750 mmHg 97%
21:00 +1°C° 0.1 mm 1 m/s 750 mmHg 97%
22:00 0°C° 0.1 mm 1 m/s 750 mmHg 97%
23:00 0°C° 0.1 mm 1 m/s 750 mmHg 97%

Depois de amanhã, 30 Novembro, Segunda-feira

Tempo Temperatura Precipitação Vento Pressão Humidade
00:00 0°C° 0 mm 1 m/s 750 mmHg 97%
01:00 -1°C° 0 mm 1 m/s 750 mmHg 97%
02:00 -1°C° 0 mm 1 m/s 751 mmHg 97%
03:00 -1°C° 0 mm 1 m/s 751 mmHg 97%
04:00 -2°C° 0 mm 0 m/s 751 mmHg 96%
05:00 -2°C° 0 mm 0 m/s 751 mmHg 96%
06:00 -2°C° 0 mm 0 m/s 751 mmHg 96%
07:00 -2°C° 0 mm 0 m/s 752 mmHg 96%
08:00 -2°C° 0 mm 0 m/s 752 mmHg 95%
09:00 -1°C° 0 mm 0 m/s 752 mmHg 93%
10:00 -1°C° 0 mm 0 m/s 753 mmHg 90%
11:00 0°C° 0 mm 0 m/s 753 mmHg 87%
12:00 +1°C° 0 mm 1 m/s 753 mmHg 85%
13:00 +1°C° 0 mm 1 m/s 754 mmHg 83%
14:00 +1°C° 0 mm 1 m/s 754 mmHg 81%
15:00 +1°C° 0 mm 1 m/s 754 mmHg 83%
16:00 +1°C° 0 mm 1 m/s 754 mmHg 85%
17:00 0°C° 0 mm 0 m/s 754 mmHg 87%
18:00 0°C° 0 mm 0 m/s 755 mmHg 86%
19:00 +1°C° 0 mm 1 m/s 755 mmHg 86%
20:00 0°C° 0 mm 1 m/s 756 mmHg 85%
21:00 0°C° 0 mm 1 m/s 756 mmHg 84%
22:00 0°C° 0 mm 1 m/s 756 mmHg 84%
23:00 0°C° 0 mm 1 m/s 756 mmHg 83%

1 Dezembro, Terça-feira

Tempo Temperatura Precipitação Vento Pressão Humidade
00:00 0°C° 0 mm 1 m/s 756 mmHg 84%
01:00 -1°C° 0 mm 1 m/s 756 mmHg 85%
02:00 -1°C° 0 mm 1 m/s 755 mmHg 86%
03:00 -1°C° 0 mm 1 m/s 755 mmHg 87%
04:00 -2°C° 0 mm 1 m/s 756 mmHg 87%
05:00 -2°C° 0 mm 1 m/s 756 mmHg 87%
06:00 -2°C° 0 mm 1 m/s 756 mmHg 86%
07:00 -2°C° 0 mm 1 m/s 756 mmHg 86%
08:00 -2°C° 0 mm 1 m/s 756 mmHg 85%
09:00 -3°C° 0 mm 2 m/s 756 mmHg 83%
10:00 -3°C° 0 mm 2 m/s 756 mmHg 80%
11:00 -2°C° 0 mm 2 m/s 756 mmHg 77%
12:00 -2°C° 0 mm 2 m/s 756 mmHg 76%
13:00 -2°C° 0 mm 2 m/s 756 mmHg 75%
14:00 -2°C° 0 mm 2 m/s 756 mmHg 74%
15:00 -2°C° 0 mm 2 m/s 756 mmHg 77%
16:00 -3°C° 0 mm 2 m/s 756 mmHg 81%
17:00 -4°C° 0 mm 2 m/s 756 mmHg 85%
18:00 -4°C° 0 mm 2 m/s 756 mmHg 85%
19:00 -4°C° 0 mm 2 m/s 756 mmHg 86%
20:00 -4°C° 0 mm 2 m/s 756 mmHg 86%
21:00 -4°C° 0 mm 2 m/s 756 mmHg 86%
22:00 -5°C° 0 mm 2 m/s 756 mmHg 86%
23:00 -5°C° 0 mm 2 m/s 756 mmHg 86%

2 Dezembro, Quarta-feira

Tempo Temperatura Precipitação Vento Pressão Humidade
00:00 -5°C° 0 mm 2 m/s 756 mmHg 87%
01:00 -5°C° 0 mm 2 m/s 756 mmHg 87%
02:00 -5°C° 0 mm 2 m/s 756 mmHg 88%
03:00 -5°C° 0 mm 2 m/s 756 mmHg 89%
04:00 -5°C° 0 mm 2 m/s 755 mmHg 89%
05:00 -5°C° 0 mm 2 m/s 755 mmHg 90%
06:00 -5°C° 0 mm 2 m/s 755 mmHg 92%
07:00 -5°C° 0 mm 2 m/s 755 mmHg 94%
08:00 -5°C° 0 mm 2 m/s 755 mmHg 95%
09:00 -2°C° 0 mm 1 m/s 755 mmHg 94%
10:00 -1°C° 0 mm 1 m/s 755 mmHg 92%
11:00 -1°C° 0 mm 1 m/s 755 mmHg 90%
12:00 0°C° 0 mm 1 m/s 755 mmHg 91%
13:00 0°C° 0 mm 1 m/s 755 mmHg 91%
14:00 +1°C° 0 mm 1 m/s 754 mmHg 92%
15:00 0°C° 0 mm 1 m/s 754 mmHg 94%
16:00 0°C° 0 mm 1 m/s 754 mmHg 95%
17:00 -2°C° 0 mm 2 m/s 754 mmHg 97%
18:00 -2°C° 0 mm 2 m/s 754 mmHg 97%
19:00 -1°C° 0 mm 2 m/s 754 mmHg 97%
20:00 -1°C° 0 mm 3 m/s 754 mmHg 97%
21:00 -1°C° 0 mm 3 m/s 754 mmHg 97%
22:00 -1°C° 0 mm 3 m/s 754 mmHg 96%
23:00 -1°C° 0 mm 2 m/s 754 mmHg 96%

3 Dezembro, Quinta-feira

Tempo Temperatura Precipitação Vento Pressão Humidade
00:00 -1°C° 0 mm 2 m/s 754 mmHg 96%
01:00 -2°C° 0 mm 2 m/s 754 mmHg 96%
02:00 -2°C° 0 mm 2 m/s 754 mmHg 97%
03:00 -2°C° 0 mm 2 m/s 754 mmHg 97%
04:00 -2°C° 0 mm 2 m/s 754 mmHg 97%
05:00 -2°C° 0 mm 3 m/s 754 mmHg 97%
06:00 -1°C° 0.1 mm 3 m/s 754 mmHg 97%
07:00 -1°C° 0.1 mm 3 m/s 754 mmHg 97%
08:00 0°C° 0.1 mm 3 m/s 753 mmHg 97%
09:00 -1°C° 0.1 mm 4 m/s 753 mmHg 97%
10:00 -1°C° 0.1 mm 4 m/s 753 mmHg 97%
11:00 -1°C° 0.1 mm 4 m/s 753 mmHg 96%
12:00 -1°C° 0.1 mm 4 m/s 753 mmHg 97%
13:00 -1°C° 0.1 mm 4 m/s 753 mmHg 97%
14:00 -1°C° 0.1 mm 5 m/s 753 mmHg 97%
15:00 -1°C° 0 mm 5 m/s 753 mmHg 96%
16:00 -1°C° 0 mm 5 m/s 753 mmHg 95%
17:00 -1°C° 0 mm 5 m/s 753 mmHg 95%
18:00 -1°C° 0.1 mm 5 m/s 753 mmHg 95%
19:00 -2°C° 0.1 mm 6 m/s 753 mmHg 96%
20:00 -2°C° 0.1 mm 6 m/s 752 mmHg 96%
21:00 -2°C° 0 mm 6 m/s 752 mmHg 95%
22:00 -2°C° 0 mm 6 m/s 752 mmHg 93%
23:00 -2°C° 0 mm 6 m/s 752 mmHg 92%
Mostrar mais

Necessitamos do seu Consentimento

A Meteoprog e os seus Fornecedores de Serviços podem armazenar e aceder a dados pessoais como cookies, identificadores do dispositivo ou outras tecnologias semelhantes existentes no seu dispositivo e processar estes dados para personalizar conteúdos e anúncios, assim como funcionalidades nas redes sociais e análise de tráfego.

  • Armazenar e/ou aceder a informações no seu dispositivo

    Os cookies, identificadores do dispositivo ou outras informações podem ser armazenados ou acedidos no seu dispositivo, para os fins acima indicados.

  • Anúncios e conteúdos personalizados, medição de anúncios e conteúdos, dados sobre o público-alvo e desenvolvimento de produtos

    Os anúncios e os conteúdos podem ser personalizados com base num perfil. Podem ser adicionados dados adicionais para uma maior personalização dos anúncios e dos conteúdos. A eficácia dos anúncios e dos conteúdos pode ser medida. Podem ser obtidas informações sobre o público que visualizou os anúncios e os conteúdos. Estes dados podem ser usados para desenvolver ou melhorar sistemas, softwares ou a experiência do utilizador.

Ao clicar em "Eu concordo”, permitirá o uso de cookies, identificadores do dispositivo e web beacons mencionados ou outras tecnologias semelhantes. As configurações do navegador do seu dispositivo podem ser alteradas.

Para certos fins, podem ser invocados interesses legítimos ao invés de consentimento. Pode ler mais informação sobre este assunto na nossa Política de Privacidade e Cookies.